| time (UTC) | temp F | wind direction | speed MPH | gust MPH | rain 1hr in | rain 24hr in | rain mn in | humidity % | barometer mb |
| 20260902085007 | 54 | 264 | 9.0 | 18.0 | 0.00 | 0.01 | 0.01 | 93 | 1019.0 |
| 20260902084507 | 54 | 270 | 9.0 | 17.0 | 0.00 | 0.01 | 0.01 | 93 | 1018.9 |
| 20260902082507 | 54 | 240 | 12.0 | 21.0 | 0.00 | 0.00 | 0.00 | 93 | 1019.1 |
| 20260902082006 | 54 | 246 | 8.0 | 16.0 | 0.00 | 0.00 | 0.00 | 93 | 1019.2 |
| 20260902081505 | 54 | 256 | 7.0 | 13.0 | 0.00 | 0.00 | 0.00 | 93 | 1019.0 |
| 20260902081007 | 54 | 259 | 9.0 | 16.0 | 0.00 | 0.00 | 0.00 | 92 | 1019.0 |
| 20260902080006 | 54 | 247 | 9.0 | 15.0 | 0.00 | 0.00 | 0.00 | 92 | 1019.1 |
| 20260902075006 | 54 | 252 | 8.0 | 14.0 | 0.00 | 0.00 | 0.00 | 91 | 1019.1 |
| 20260902074008 | 54 | 273 | 7.0 | 15.0 | 0.00 | 0.00 | 0.00 | 90 | 1019.1 |
| 20260902073506 | 54 | 298 | 6.0 | 15.0 | 0.00 | 0.00 | 0.00 | 89 | 1018.9 |
| 20260902071506 | 55 | 253 | 9.0 | 15.0 | 0.00 | 0.00 | 0.00 | 89 | 1019.1 |
| 20260902070007 | 55 | 235 | 17.0 | 24.0 | 0.00 | 0.00 | 0.00 | 89 | 1019.1 |
| 20260902064506 | 55 | 270 | 9.0 | 17.0 | 0.00 | 0.00 | 0.00 | 90 | 1018.8 |
| 20260902063506 | 55 | 265 | 9.0 | 21.0 | 0.00 | 0.00 | 0.00 | 90 | 1018.8 |
| 20260902062507 | 55 | 254 | 10.0 | 21.0 | 0.00 | 0.00 | 0.00 | 90 | 1018.9 |
| 20260902062006 | 55 | 284 | 11.0 | 25.0 | 0.00 | 0.00 | 0.00 | 91 | 1018.3 |
| 20260902055006 | 55 | 259 | 12.0 | 22.0 | 0.00 | 0.00 | 0.00 | 92 | 1018.7 |
| 20260902053507 | 55 | 277 | 10.0 | 21.0 | 0.00 | 0.00 | 0.00 | 92 | 1018.6 |
| 20260902052007 | 56 | 294 | 16.0 | 28.0 | 0.00 | 0.00 | 0.00 | 91 | 1018.5 |
| 20260902051005 | 56 | 256 | 11.0 | 20.0 | 0.00 | 0.00 | 0.00 | 91 | 1018.7 |
| 20260902050507 | 56 | 293 | 9.0 | 21.0 | 0.00 | 0.00 | 0.00 | 91 | 1018.4 |
| 20260902050008 | 56 | 303 | 10.0 | 21.0 | 0.00 | 0.00 | 0.00 | 90 | 1018.6 |
| 20260902045505 | 56 | 276 | 10.0 | 23.0 | 0.00 | 0.00 | 0.00 | 89 | 1018.7 |
| 20260902045006 | 56 | 259 | 10.0 | 23.0 | 0.00 | 0.00 | 0.00 | 89 | 1018.5 |
| 20260902044507 | 57 | 255 | 14.0 | 30.0 | 0.00 | 0.00 | 0.00 | 88 | 1018.7 |
| 20260902044005 | 57 | 279 | 16.0 | 28.0 | 0.00 | 0.00 | 0.00 | 87 | 1018.5 |
| 20260902042006 | 58 | 252 | 12.0 | 17.0 | 0.00 | 0.00 | 0.00 | 82 | 1018.7 |
| 20260902041005 | 59 | 254 | 12.0 | 18.0 | 0.00 | 0.00 | 0.00 | 82 | 1018.6 |
| 20260902040507 | 59 | 257 | 12.0 | 21.0 | 0.00 | 0.00 | 0.00 | 81 | 1018.6 |
| 20260902035505 | 59 | 257 | 9.0 | 20.0 | 0.00 | 0.00 | 0.00 | 82 | 1018.6 |
| 20260902033507 | 59 | 292 | 14.0 | 26.0 | 0.00 | 0.00 | 0.00 | 82 | 1018.8 |
| 20260902032505 | 60 | 260 | 13.0 | 22.0 | 0.00 | 0.00 | 0.00 | 80 | 1018.7 |
| 20260902030506 | 61 | 288 | 7.0 | 20.0 | 0.00 | 0.00 | 0.00 | 77 | 1018.6 |
| 20260902030005 | 61 | 257 | 13.0 | 21.0 | 0.00 | 0.00 | 0.00 | 76 | 1018.7 |
| 20260902025505 | 61 | 257 | 12.0 | 20.0 | 0.00 | 0.00 | 0.00 | 76 | 1018.6 |
| 20260902024505 | 62 | 278 | 10.0 | 25.0 | 0.00 | 0.00 | 0.00 | 76 | 1019.0 |
| 20260902024005 | 61 | 251 | 12.0 | 21.0 | 0.00 | 0.00 | 0.00 | 77 | 1018.9 |
| 20260902021005 | 61 | 265 | 14.0 | 24.0 | 0.00 | 0.00 | 0.00 | 77 | 1019.2 |
| 20260902015007 | 64 | 264 | 13.0 | 22.0 | 0.00 | 0.00 | 0.00 | 74 | 1019.0 |
| 20260902014005 | 64 | 262 | 12.0 | 23.0 | 0.00 | 0.00 | 0.00 | 78 | 1019.3 |
| 20260902013505 | 63 | 279 | 10.0 | 21.0 | 0.00 | 0.00 | 0.00 | 77 | 1019.3 |
| 20260902013008 | 64 | 255 | 12.0 | 23.0 | 0.00 | 0.00 | 0.00 | 75 | 1019.3 |
| 20260902012505 | 64 | 289 | 11.0 | 25.0 | 0.00 | 0.00 | 0.00 | 75 | 1019.4 |
| 20260902011506 | 63 | 269 | 12.0 | 25.0 | 0.00 | 0.00 | 0.00 | 75 | 1019.6 |
| 20260902011004 | 63 | 263 | 14.0 | 24.0 | 0.00 | 0.00 | 0.00 | 77 | 1019.7 |
| 20260902010505 | 63 | 246 | 12.0 | 24.0 | 0.00 | 0.00 | 0.00 | 78 | 1019.5 |
| 20260902010006 | 63 | 301 | 13.0 | 24.0 | 0.00 | 0.00 | 0.00 | 78 | 1019.7 |
| 20260902004004 | 62 | 272 | 12.0 | 24.0 | 0.00 | 0.00 | 0.00 | 79 | 1019.8 |
| 20260902003507 | 61 | 268 | 10.0 | 23.0 | 0.00 | 0.00 | 0.00 | 81 | 1019.9 |
| 20260902003005 | 60 | 282 | 13.0 | 25.0 | 0.00 | 0.00 | 0.00 | 80 | 1019.8 |
| 20260902002505 | 60 | 271 | 13.0 | 22.0 | 0.00 | 0.00 | 0.00 | 77 | 1020.2 |
| 20260902002006 | 62 | 258 | 12.0 | 28.0 | 0.00 | 0.00 | 0.00 | 75 | 1020.3 |
| 20260902001505 | 63 | 296 | 16.0 | 26.0 | 0.00 | 0.00 | 0.00 | 77 | 1020.1 |
| 20260902000506 | 62 | 266 | 12.0 | 24.0 | 0.00 | 0.00 | 0.00 | 78 | 1020.1 |
| 20260902000005 | 62 | 295 | 15.0 | 24.0 | 0.00 | 0.00 | 0.00 | 78 | 1020.2 |
| 20260901235505 | 62 | 262 | 14.0 | 25.0 | 0.00 | 0.00 | 0.00 | 77 | 1020.1 |
| 20260901235007 | 62 | 258 | 13.0 | 23.0 | 0.00 | 0.00 | 0.00 | 77 | 1020.3 |
| 20260901231005 | 61 | 251 | 10.0 | 21.0 | 0.00 | 0.00 | 0.00 | 78 | 1020.3 |
| 20260901230006 | 63 | 255 | 13.0 | 28.0 | 0.00 | 0.00 | 0.00 | 77 | 1020.1 |
| 20260901224006 | 62 | 295 | 10.0 | 23.0 | 0.00 | 0.00 | 0.00 | 79 | 1020.0 |
| 20260901223505 | 62 | 252 | 13.0 | 23.0 | 0.00 | 0.00 | 0.00 | 79 | 1020.2 |
| 20260901223006 | 61 | 275 | 10.0 | 24.0 | 0.00 | 0.00 | 0.00 | 78 | 1020.2 |
| 20260901222506 | 61 | 275 | 10.0 | 24.0 | 0.00 | 0.00 | 0.00 | 77 | 1020.1 |
| 20260901222005 | 61 | 251 | 12.0 | 22.0 | 0.00 | 0.00 | 0.00 | 76 | 1020.0 |
| 20260901221006 | 61 | 284 | 13.0 | 25.0 | 0.00 | 0.00 | 0.00 | 76 | 1020.1 |
| 20260901215005 | 60 | 261 | 10.0 | 21.0 | 0.00 | 0.00 | 0.00 | 78 | 1020.2 |
| 20260901214005 | 60 | 268 | 10.0 | 22.0 | 0.00 | 0.00 | 0.00 | 78 | 1020.2 |
| 20260901212005 | 59 | 271 | 12.0 | 20.0 | 0.00 | 0.00 | 0.00 | 77 | 1020.2 |
| 20260901211004 | 59 | 256 | 13.0 | 26.0 | 0.00 | 0.00 | 0.00 | 78 | 1020.3 |
| 20260901210507 | 58 | 254 | 14.0 | 26.0 | 0.00 | 0.00 | 0.00 | 78 | 1020.2 |
| 20260901210005 | 58 | 243 | 14.0 | 21.0 | 0.00 | 0.00 | 0.00 | 80 | 1020.2 |
| 20260901205505 | 58 | 260 | 10.0 | 18.0 | 0.00 | 0.00 | 0.00 | 81 | 1019.9 |
| 20260901204506 | 57 | 264 | 10.0 | 23.0 | 0.00 | 0.00 | 0.00 | 83 | 1019.9 |
| 20260901203506 | 57 | 253 | 13.0 | 22.0 | 0.00 | 0.00 | 0.00 | 83 | 1019.8 |
| 20260901203005 | 56 | 258 | 13.0 | 22.0 | 0.00 | 0.00 | 0.00 | 83 | 1019.7 |
| 20260901201506 | 55 | 256 | 12.0 | 24.0 | 0.00 | 0.00 | 0.00 | 86 | 1019.9 |
| 20260901200504 | 55 | 252 | 16.0 | 25.0 | 0.00 | 0.00 | 0.00 | 87 | 1019.7 |
| 20260901195506 | 54 | 256 | 14.0 | 23.0 | 0.00 | 0.00 | 0.00 | 87 | 1019.7 |
| 20260901194504 | 54 | 259 | 11.0 | 22.0 | 0.00 | 0.00 | 0.00 | 87 | 1019.5 |
| 20260901194006 | 54 | 251 | 16.0 | 25.0 | 0.00 | 0.00 | 0.00 | 86 | 1019.6 |
| 20260901193504 | 54 | 279 | 11.0 | 23.0 | 0.00 | 0.00 | 0.00 | 87 | 1019.5 |
| 20260901193005 | 54 | 249 | 13.0 | 24.0 | 0.00 | 0.00 | 0.00 | 87 | 1019.4 |
| 20260901192506 | 54 | 250 | 16.0 | 29.0 | 0.00 | 0.00 | 0.00 | 87 | 1019.4 |
| 20260901190505 | 54 | 260 | 16.0 | 24.0 | 0.00 | 0.00 | 0.00 | 86 | 1019.2 |
| 20260901190005 | 53 | 252 | 13.0 | 23.0 | 0.00 | 0.00 | 0.00 | 85 | 1019.2 |
| 20260901185504 | 53 | 253 | 12.0 | 22.0 | 0.00 | 0.00 | 0.00 | 84 | 1019.4 |
| 20260901185006 | 53 | 258 | 12.0 | 30.0 | 0.00 | 0.00 | 0.00 | 83 | 1019.2 |
| 20260901184504 | 53 | 258 | 13.0 | 24.0 | 0.00 | 0.00 | 0.00 | 82 | 1019.2 |
| 20260901183005 | 53 | 256 | 11.0 | 25.0 | 0.00 | 0.01 | 0.00 | 82 | 1019.0 |
| 20260901182504 | 53 | 249 | 17.0 | 25.0 | 0.00 | 0.03 | 0.00 | 83 | 1019.1 |
| 20260901181506 | 53 | 256 | 13.0 | 23.0 | 0.00 | 0.03 | 0.00 | 84 | 1018.9 |
| 20260901181005 | 53 | 254 | 12.0 | 18.0 | 0.00 | 0.03 | 0.00 | 83 | 1018.9 |
| 20260901180504 | 53 | 264 | 10.0 | 23.0 | 0.00 | 0.03 | 0.00 | 82 | 1019.0 |
| 20260901175005 | 53 | 256 | 11.0 | 21.0 | 0.00 | 0.03 | 0.00 | 81 | 1018.9 |
| 20260901173504 | 54 | 250 | 15.0 | 22.0 | 0.00 | 0.03 | 0.00 | 82 | 1018.8 |
| 20260901173005 | 53 | 254 | 14.0 | 22.0 | 0.00 | 0.03 | 0.00 | 83 | 1018.8 |
| 20260901172006 | 53 | 249 | 14.0 | 21.0 | 0.00 | 0.03 | 0.00 | 84 | 1018.6 |
| 20260901171504 | 53 | 250 | 12.0 | 18.0 | 0.00 | 0.03 | 0.00 | 84 | 1018.6 |
| 20260901171004 | 53 | 263 | 10.0 | 18.0 | 0.00 | 0.03 | 0.00 | 83 | 1018.7 |
| 20260901170004 | 53 | 253 | 12.0 | 20.0 | 0.00 | 0.03 | 0.00 | 83 | 1018.6 |
| 20260901165508 | 53 | 260 | 13.0 | 20.0 | 0.00 | 0.04 | 0.00 | 82 | 1018.7 |
| 20260901164506 | 53 | 247 | 13.0 | 20.0 | 0.00 | 0.05 | 0.00 | 81 | 1018.6 |
| 20260901164008 | 54 | 251 | 12.0 | 21.0 | 0.00 | 0.05 | 0.00 | 80 | 1018.7 |
| 20260901163506 | 54 | 247 | 11.0 | 23.0 | 0.00 | 0.05 | 0.00 | 79 | 1018.7 |
| 20260901163008 | 54 | 232 | 17.0 | 23.0 | 0.00 | 0.05 | 0.00 | 79 | 1018.6 |
| 20260901161008 | 53 | 249 | 16.0 | 24.0 | 0.00 | 0.05 | 0.00 | 79 | 1018.4 |
| 20260901160506 | 53 | 247 | 16.0 | 22.0 | 0.00 | 0.05 | 0.00 | 79 | 1018.6 |
| 20260901160006 | 53 | 250 | 13.0 | 24.0 | 0.00 | 0.05 | 0.00 | 78 | 1018.4 |
| 20260901155508 | 53 | 249 | 18.0 | 25.0 | 0.00 | 0.05 | 0.00 | 79 | 1018.6 |
| 20260901153508 | 53 | 258 | 12.0 | 22.0 | 0.00 | 0.05 | 0.00 | 80 | 1018.2 |
| 20260901151507 | 52 | 248 | 14.0 | 20.0 | 0.00 | 0.05 | 0.00 | 86 | 1018.4 |
| 20260901151006 | 52 | 252 | 9.0 | 14.0 | 0.00 | 0.05 | 0.00 | 86 | 1018.7 |
| 20260901150007 | 52 | 248 | 9.0 | 14.0 | 0.00 | 0.05 | 0.00 | 86 | 1018.9 |
| 20260901144506 | 53 | 244 | 11.0 | 20.0 | 0.00 | 0.05 | 0.00 | 86 | 1019.1 |
| 20260901144008 | 53 | 228 | 15.0 | 24.0 | 0.00 | 0.05 | 0.00 | 85 | 1019.1 |
| 20260901143508 | 53 | 220 | 14.0 | 24.0 | 0.00 | 0.06 | 0.00 | 81 | 1019.1 |
| 20260901142508 | 53 | 244 | 15.0 | 23.0 | 0.00 | 0.06 | 0.00 | 80 | 1019.1 |
| 20260901141506 | 53 | 251 | 12.0 | 25.0 | 0.00 | 0.06 | 0.00 | 81 | 1019.1 |
| 20260901141008 | 53 | 253 | 14.0 | 23.0 | 0.00 | 0.06 | 0.00 | 81 | 1019.1 |
| 20260901140506 | 53 | 239 | 14.0 | 23.0 | 0.00 | 0.06 | 0.00 | 81 | 1019.2 |
| 20260901140006 | 53 | 259 | 11.0 | 22.0 | 0.00 | 0.06 | 0.00 | 80 | 1019.3 |
| 20260901135008 | 53 | 240 | 16.0 | 24.0 | 0.00 | 0.06 | 0.00 | 80 | 1019.4 |
| 20260901134506 | 53 | 245 | 16.0 | 23.0 | 0.00 | 0.06 | 0.00 | 79 | 1019.6 |
| 20260901134006 | 53 | 242 | 17.0 | 29.0 | 0.00 | 0.06 | 0.00 | 78 | 1019.5 |
| 20260901132006 | 54 | 253 | 16.0 | 31.0 | 0.00 | 0.06 | 0.00 | 77 | 1019.4 |
| 20260901131507 | 54 | 245 | 22.0 | 31.0 | 0.00 | 0.06 | 0.00 | 78 | 1019.3 |
| 20260901131006 | 54 | 245 | 14.0 | 22.0 | 0.00 | 0.06 | 0.00 | 77 | 1019.5 |
| 20260901130006 | 53 | 246 | 17.0 | 25.0 | 0.00 | 0.06 | 0.00 | 78 | 1019.3 |
| 20260901125507 | 53 | 248 | 15.0 | 29.0 | 0.00 | 0.06 | 0.00 | 79 | 1019.2 |
| 20260901124008 | 53 | 251 | 15.0 | 21.0 | 0.00 | 0.06 | 0.00 | 79 | 1019.1 |
| 20260901121007 | 53 | 246 | 12.0 | 21.0 | 0.00 | 0.08 | 0.00 | 75 | 1019.0 |
| 20260901115506 | 53 | 251 | 15.0 | 29.0 | 0.00 | 0.08 | 0.08 | 74 | 1019.0 |
| 20260901114008 | 53 | 244 | 19.0 | 29.0 | 0.00 | 0.11 | 0.08 | 76 | 1019.2 |
| 20260901113506 | 54 | 255 | 12.0 | 23.0 | 0.00 | 0.11 | 0.08 | 78 | 1019.2 |
| 20260901112008 | 54 | 251 | 15.0 | 29.0 | 0.00 | 0.11 | 0.08 | 77 | 1018.7 |
| 20260901111506 | 54 | 254 | 13.0 | 25.0 | 0.00 | 0.11 | 0.08 | 77 | 1019.1 |
| 20260901110508 | 54 | 258 | 14.0 | 24.0 | 0.00 | 0.11 | 0.08 | 78 | 1019.0 |
| 20260901110005 | 54 | 249 | 15.0 | 21.0 | 0.00 | 0.11 | 0.08 | 78 | 1018.9 |
| 20260901105008 | 54 | 241 | 14.0 | 20.0 | 0.00 | 0.11 | 0.08 | 77 | 1019.4 |
| 20260901104506 | 54 | 246 | 13.0 | 20.0 | 0.00 | 0.11 | 0.08 | 75 | 1019.3 |
| 20260901103006 | 54 | 250 | 13.0 | 21.0 | 0.00 | 0.11 | 0.08 | 73 | 1019.3 |
| 20260901102506 | 54 | 251 | 12.0 | 18.0 | 0.00 | 0.11 | 0.08 | 73 | 1019.2 |
| 20260901102007 | 54 | 242 | 16.0 | 21.0 | 0.00 | 0.11 | 0.08 | 72 | 1019.2 |
| 20260901100008 | 54 | 251 | 10.0 | 21.0 | 0.00 | 0.11 | 0.08 | 71 | 1019.2 |
| 20260901091507 | 54 | 241 | 12.0 | 24.0 | 0.00 | 0.11 | 0.08 | 75 | 1019.0 |